Location: Carroll
(32.4774°N, 95.5202°W)
Time: 02:12:59
(UTC+02:00)

Daily predictions for brighter satellites

Satellite Brightness Start Highest point End
(mag) Time Altitude Azimuth Time Altitude Azimuth Time Altitude Azimuth
CORIOLIS 4.2 02:04:11 10° SSE 02:09:33 87° ENE 02:14:58 10° NNW
Meteor 2-15 4.4 02:07:19 10° N 02:13:25 75° E 02:19:31 10° SSE
CZ-4 R/B 1.7 02:09:56 10° S 02:14:09 80° WSW 02:18:22 10° NNW
MOS 1 4.4 02:11:00 10° SSE 02:16:29 53° ENE 02:21:58 10° N
GP-B 3.3 02:12:12 10° NNE 02:16:30 48° E 02:20:47 10° SSE
Cosmos 1703 4.4 02:14:54 10° NNE 02:18:04 23° ENE 02:21:11 10° SE
Meteor 2-14 Rocket 4.5 02:12:21 10° S 02:18:27 88° E 02:24:34 10° N
Meteor 2-16 Rocket 4.4 02:14:53 10° S 02:20:56 78° E 02:27:04 10° N
Cosmos-2242 3.9 02:19:14 10° SSW 02:23:24 53° W 02:27:34 10° N
ASTRO E2 2.9 02:23:10 10° WSW 02:27:06 61° S 02:30:31 13° E
Cosmos 1400 Rocket 3.3 02:23:35 10° N 02:27:19 36° ENE 02:31:00 10° SSE
Tiangong 1 1.5 02:25:24 10° NW 02:27:56 35° NNE 02:29:46 15° E
ERS-2 3.3 02:26:18 10° S 02:29:52 49° WSW 02:33:28 10° NNW
Cosmos 1624 Rocket 3.9 02:26:47 10° N 02:31:59 68° ENE 02:37:12 10° SSE
GRACE-2 4.4 02:31:10 10° SSE 02:33:30 30° E 02:35:50 10° NNE
SKYMED 2 3.8 02:29:56 10° N 02:34:16 74° WNW 02:38:34 10° SSW
Cosmos 1371 Rocket 4.1 02:28:56 10° NNW 02:34:20 89° ENE 02:39:40 10° SSE
Thor Agena Rocket 3.9 02:30:10 10° NNE 02:34:55 38° E 02:39:35 10° SSE
GRACE-1 4.2 02:32:56 10° SSE 02:35:19 34° E 02:37:43 10° NNE
Cosmos 1908 3.9 02:32:32 10° SSE 02:36:03 33° E 02:39:35 10° NNE
Iridium 4 Rocket 4.3 02:33:47 10° SE 02:38:26 32° E 02:43:25 10° NNE
SL-16 R/B 2.2 02:33:50 10° NNW 02:39:32 86° ENE 02:45:12 10° SSE
Cosmos 1743 Rocket 3.5 02:36:48 10° N 02:41:09 66° E 02:45:31 10° SSE
Cosmos 1842 Rocket 3.6 02:39:05 10° S 02:43:34 88° W 02:48:03 10° N
Cosmos 2151 3.1 02:39:58 10° N 02:44:08 52° E 02:48:16 10° SSE
H-2A R/B 4.0 02:43:01 19° E 02:44:12 22° ENE 02:47:12 10° NNE
Delta 2 Rocket 2.9 02:42:06 10° W 02:45:46 73° NNW 02:47:45 23° ENE
Cosmos 44 3.9 02:42:20 10° S 02:46:04 27° ESE 02:47:52 20° ENE
GENESIS II 4.1 02:43:34 10° SSW 02:47:31 77° ESE 02:51:29 10° NNE
Cosmos 1726 4.2 02:47:09 10° SE 02:47:41 13° SE 02:47:41 13° SE
APEX 3.7 02:47:20 10° S 02:50:39 30° ESE 02:51:17 28° E
FREGAT/IRIS 4.4 02:56:03 18° NNE 02:56:03 18° NNE 02:57:13 10° NNE
Cosmos 2221 2.6 02:50:59 10° SSE 02:55:06 49° E 02:59:17 10° NNE
Cosmos 44 Rocket 3.7 02:52:15 10° S 02:56:34 36° ESE 02:58:42 24° ENE
ISS -3.2 02:54:47 10° NW 02:58:00 56° SW 03:00:17 17° SSE
BREEZE-M R/B 4.2 02:57:04 10° S 02:57:37 13° SSE 02:57:37 13° SSE
Milstar 3 Cent rocket 4.2 02:52:56 10° W 03:02:01 35° SSW 03:07:17 10° SE
Cosmos 1500 Rocket 3.5 02:59:11 10° N 03:03:33 88° WSW 03:07:51 10° S
ATLAS 3B CENTAUR R/B 4.2 02:59:20 10° WSW 03:03:48 29° S 03:13:14 10° SE
SPOT 3 Rocket 4.0 02:58:52 10° S 03:03:59 64° WSW 03:09:09 10° NNW
Cosmos 158 Rocket 3.8 03:00:55 10° S 03:05:48 63° ESE 03:10:52 10° NNE
Cosmos 1315 Rocket 2.8 03:04:18 10° N 03:08:19 58° E 03:12:20 10° SSE
BREEZE-M DEB (TANK) 2.5 03:08:23 10° NW 03:09:32 29° NNW 03:09:32 29° NNW
Cosmos 921 Rocket 3.3 03:06:37 10° N 03:10:53 45° ENE 03:11:50 39° ESE
Cosmos 1269 Rocket 4.1 03:07:15 10° S 03:12:19 51° ESE 03:16:58 12° NNE
COSMOS 2428 3.6 03:11:54 10° N 03:16:20 28° NE 03:16:20 28° NE
Cosmos 2058 3.6 03:14:22 10° NNW 03:18:27 55° W 03:22:29 10° S
Cosmos 2098 Rocket 2.8 03:15:12 10° S 03:18:56 64° E 03:23:42 10° NNE
Cosmos 2333 Rocket 4.1 03:16:47 10° NNE 03:18:01 13° NNE 03:18:01 13° NNE
FengYun 1-2 T 4.1 03:15:35 10° SSE 03:21:02 68° ENE 03:26:30 10° N
RESURS DK-1 2.3 03:19:09 10° NNW 03:23:04 58° NE 03:23:04 58° NE
Cosmos 1626 4.2 03:20:15 10° NNW 03:23:31 29° W 03:26:45 10° SSW
Cosmos 2219 3.2 03:17:58 10° S 03:23:37 62° ESE 03:27:40 19° NNE
Cosmos 2360 Rocket 2.1 03:18:07 10° NNW 03:23:48 80° ENE 03:28:04 18° SSE
MOS 1-B Rocket 4.4 03:25:31 35° ENE 03:25:31 35° ENE 03:30:11 10° N
SJ-6B 4.1 03:30:52 28° N 03:30:52 28° N 03:32:46 10° N
Cosmos 2322 Rocket 3.9 03:24:47 10° NW 03:29:42 32° WSW 03:34:36 10° SSW
SL-24 R/B - RUBIN 2 3.8 03:26:40 10° NNW 03:30:52 53° NE 03:30:52 53° NE
Cosmos 1821 Rocket 3.9 03:27:26 10° S 03:33:33 90° E 03:39:47 10° N
Cosmos 1452 Rocket 3.5 03:32:08 10° NNW 03:37:24 80° WSW 03:40:42 23° S
Cosmos 1000 Rocket 4.4 03:34:15 10° N 03:40:30 90° E 03:46:40 10° S
OAO 1 Rocket 4.3 03:35:12 10° W 03:40:31 82° NNW 03:41:07 70° NE
USA 267 3.7 03:37:01 16° NNE 03:42:18 59° NW 03:48:41 10° WSW
Cosmos 1934 Rocket 3.9 03:36:30 10° S 03:42:49 80° E 03:49:12 10° N
ALOS 4.2 03:41:32 10° SSW 03:45:35 30° W 03:49:40 10° NW
Atlas Centaur 2 2.3 03:41:05 10° W 03:46:23 69° S 03:47:13 61° SE
DELTA 2 R/B (1) 4.0 03:41:03 10° WNW 03:46:26 46° NNE 03:46:42 46° NNE
Cosmos 2322 3.7 03:43:40 10° NNW 03:49:24 78° WSW 03:51:21 42° S
CZ-4C R/B 2.2 03:51:34 10° SW 03:56:35 67° WNW 03:57:35 54° N
ATLAS 2A CENTAUR R/B 3.9 03:53:51 10° SW 03:53:52 10° SW 03:53:52 10° SW
Cosmos 2123 Rocket 4.1 04:00:30 10° N 04:05:32 60° N 04:05:32 60° N
Cosmos 2219 Rocket 3.9 04:08:59 10° N 04:11:01 22° N 04:11:01 22° N
FALCON 9 R/B 4.3 04:24:43 10° SW 04:25:33 13° SW 04:25:33 13° SW
Centaur D AC-28 3.6 04:27:45 10° SW 05:06:22 - E 04:30:48 43° SSW
Milstar 3 4.3 11:05:11 27° ESE 11:05:11 27° ESE 11:08:16 10° E
Cosmos 1943 Rocket 4.2 11:23:57 21° NE 11:23:57 21° NE 11:25:56 10° NE
ADEOS II 4.0 11:44:34 10° NNE 11:46:15 21° NNE 11:46:15 21° NNE
USA 229 DEB 3.9 11:50:33 64° ESE 11:50:41 64° ESE 11:57:28 10° NE
USA 229 3.9 11:50:35 63° SE 11:50:48 63° ESE 11:57:32 10° NE
Cosmos 2369 Rocket 4.1 11:57:54 20° N 11:57:54 20° N 11:59:34 10° N
